Theta_e
299 299 299 300 299 303 308 309 309 309 309 308 305 301 304 302 301 301 304 303 303 304 300 300 301 300 300 299 298 295 297 296 298 298 298 297 298 298 297 297 297 298 300 298 299
300 299 299 299 299 300 308 308 306 307 304 304 302 300 304 303 303 303 304 302 302 302 299 301 301 299 298 299 298 297 296 297 297 297 297 298 298 297 298 296 297 297 297 299 299
300 300 299 299 299 299 305 305 303 301 301 301 300 301 305 304 301 302 300 301 301 300 299 299 298 299 299 299 298 298 298 298 298 298 299 299 298 297 297 298 297 297 298 298 298
300 300 300 299 299 299 301 300 300 301 301 300 300 302 304 306 297 302 299 299 299 298 298 298 297 298 299 299 299 299 298 298 299 299 299 299 298 298 296 297 297 295 295 296 296
300 300 300 299 299 299 300 298 298 300 300 301 300 301 305 298 300 300 299 298 298 298 298 298 297 298 299 298 298 298 298 299 299 298 298 298 298 298 297 295 293 293 293 293 293
301 300 300 300 299 299 298 298 298 300 299 300 303 304 303 298 300 298 299 298 298 298 298 297 297 298 298 299 299 299 299 298 299 299 299 299 298 298 296 296 291 291 290 291 291
301 301 300 300 299 299 298 299 299 299 299 300 303 302 297 298 299 299 299 299 298 299 298 299 299 298 299 298 298 299 299 299 300 299 299 297 298 299 294 292 290 289 288 289 290
302 301 300 300 300 299 298 298 299 299 300 302 302 303 298 299 299 299 299 299 299 300 300 300 300 299 299 298 298 299 299 298 298 298 298 298 299 298 293 291 290 289 287 288 288
302 301 300 300 300 299 299 299 300 299 299 300 301 301 297 299 298 299 298 298 299 299 300 300 300 299 297 296 295 297 297 297 297 297 296 296 297 292 290 290 288 288 287 287 288
301 301 300 300 300 299 298 301 300 300 301 301 299 296 297 297 298 299 298 299 299 297 298 299 296 296 295 296 294 297 297 297 297 296 297 296 298 293 290 289 288 287 287 287 287
303 301 301 300 300 299 297 301 297 303 298 297 298 297 297 298 298 298 298 298 297 296 297 297 296 297 296 297 297 297 297 296 295 295 296 296 295 293 291 289 287 287 286 286 286
305 302 301 300 300 299 296 299 299 299 297 298 298 298 298 297 297 297 298 297 297 297 296 297 298 297 297 298 297 297 296 295 294 294 296 294 292 291 291 289 287 286 286 286 285
306 303 301 300 301 300 296 297 299 300 299 299 297 297 297 297 297 297 297 297 297 298 297 297 298 298 297 297 298 296 296 295 294 294 296 294 293 292 291 290 287 286 285 284 284
308 304 301 300 300 300 296 297 300 301 298 299 298 297 297 297 298 297 297 297 297 298 297 297 299 298 297 298 295 290 295 293 294 292 295 296 295 294 288 288 286 285 284 283 283
309 305 301 300 299 298 297 299 300 300 299 298 297 297 297 298 297 297 296 296 298 297 294 297 298 298 293 298 295 291 293 293 294 293 291 298 293 290 288 286 284 282 282 281 282
310 306 302 301 300 300 297 299 301 303 301 299 297 297 298 297 297 297 296 295 295 296 297 297 295 295 297 295 294 293 291 294 297 294 287 293 292 289 285 284 282 281 280 281 282
310 306 302 301 300 297 299 301 303 303 298 297 296 297 297 298 298 297 296 295 296 293 294 295 297 296 294 293 293 290 290 292 293 290 290 293 292 289 284 283 280 279 278 280 281
310 305 302 301 299 296 301 301 301 300 294 296 297 298 300 297 297 297 296 296 295 294 289 291 296 294 293 289 290 292 286 293 296 295 293 293 288 291 283 282 278 278 279 280 280
309 304 301 301 297 297 300 300 305 299 297 296 298 298 296 298 297 298 297 296 296 292 290 287 292 295 293 291 290 294 293 292 289 292 293 294 292 286 286 282 278 276 279 279 279
306 301 301 300 295 299 300 306 300 295 295 297 298 296 294 293 296 297 297 296 296 296 290 290 293 295 294 291 291 292 291 293 292 293 296 298 294 288 281 279 277 276 279 278 278
303 300 299 295 296 300 299 301 297 294 296 297 294 297 295 295 296 295 298 296 295 295 293 290 290 294 293 285 287 291 291 291 291 293 291 295 296 281 280 277 275 276 278 278 279
300 303 295 295 300 291 294 297 294 294 295 295 296 296 294 292 293 297 299 297 295 294 296 293 289 292 289 283 287 290 287 288 287 293 291 291 291 284 280 278 279 279 278 278 279
299 299 296 297 301 295 293 296 295 294 295 296 296 295 289 290 293 292 297 295 294 295 292 291 293 290 294 292 292 287 291 289 287 289 289 289 288 282 278 279 278 278 278 277 278
300 304 299 298 298 297 298 298 297 295 295 296 296 294 290 288 290 289 295 295 295 295 296 294 291 290 294 291 282 288 286 289 288 282 284 288 288 284 281 279 277 277 277 276 277
300 304 297 299 298 298 299 298 297 297 294 295 296 294 292 289 287 288 292 294 295 297 294 291 289 288 284 279 282 286 285 284 283 280 286 287 284 284 279 276 276 276 276 276 276
300 298 294 297 298 301 302 300 297 295 295 295 294 292 289 291 294 292 293 295 297 294 295 291 290 288 291 280 277 285 284 282 282 278 279 275 280 277 275 272 273 274 275 275 276
296 297 300 299 299 301 301 301 298 296 294 294 294 293 291 292 291 292 292 292 293 289 292 288 288 286 289 284 288 290 287 278 278 273 280 286 282 271 274 272 270 272 273 274 274
Wind_Speed
13 14 16 17 19 20 21 20 18 19 15 11 6 3 8 11 11 17 9 10 11 13 15 16 13 16 3 2 2 4 2 2 4 3 4 4 6 4 3 3 5 5 2 2 11
13 14 16 18 20 20 21 20 20 17 11 8 6 4 8 11 8 14 6 12 13 13 14 9 7 11 4 3 3 3 3 5 3 5 6 7 3 7 5 6 6 6 7 10 15
14 15 16 18 20 20 22 19 19 12 9 7 6 5 6 4 3 3 11 12 15 12 10 6 8 2 4 4 5 2 4 1 3 4 6 5 7 3 5 4 5 10 16 14 13
14 16 17 19 20 22 22 19 14 9 8 7 5 4 3 2 2 4 11 15 17 9 5 4 5 4 4 3 2 3 5 3 5 3 5 6 4 5 8 9 10 7 12 12 15
14 15 17 18 21 23 21 18 11 7 7 6 3 2 1 4 0 6 15 16 14 6 4 2 5 2 1 3 5 2 3 7 8 10 6 8 5 7 8 8 6 8 12 12 11
14 16 17 18 20 24 19 17 9 5 5 5 4 1 1 2 2 7 20 14 9 5 6 6 2 2 3 2 1 3 6 10 7 7 5 5 5 3 9 13 8 10 10 10 10
14 16 17 19 20 24 18 15 8 4 3 3 4 3 3 4 2 13 20 9 9 6 5 1 1 1 2 4 2 6 5 7 4 2 7 6 5 2 5 9 12 13 11 11 11
14 16 18 19 19 22 19 16 5 2 2 3 2 2 1 1 4 13 20 7 7 7 3 2 1 2 2 4 6 5 2 8 6 16 3 11 13 5 13 13 11 13 12 14 14
15 16 18 19 21 20 17 12 1 2 2 2 2 1 1 1 7 13 12 5 4 3 3 1 2 2 5 3 3 4 9 17 11 9 8 3 10 9 11 11 11 12 13 14 16
14 17 17 20 23 17 15 2 3 2 1 0 2 2 2 4 8 10 15 6 5 3 4 5 4 3 3 6 3 13 12 8 13 6 5 12 3 4 7 13 10 11 12 14 15
15 16 18 19 22 15 14 2 5 2 8 2 0 1 3 8 2 8 12 2 5 7 4 4 4 3 5 3 5 6 9 10 11 9 10 4 3 6 5 11 12 14 14 15 16
14 16 17 19 16 13 8 6 2 2 2 2 3 2 1 3 3 6 10 5 5 4 4 4 1 3 6 5 5 8 11 6 8 3 7 3 4 5 7 8 13 14 16 17 19
14 15 16 19 8 7 13 5 2 3 1 3 2 1 1 0 1 5 4 2 3 3 4 2 2 6 5 6 11 8 4 5 8 8 1 3 5 1 5 5 15 15 15 17 18
13 14 15 16 3 5 3 5 4 2 4 3 1 1 2 2 0 2 5 2 3 2 2 4 3 4 6 5 6 6 5 11 11 2 1 3 4 2 8 9 17 17 16 17 18
12 12 12 10 7 2 3 2 4 0 4 1 1 1 2 2 3 4 10 5 2 2 5 2 4 4 4 9 5 9 17 11 5 2 3 3 0 2 6 13 19 18 19 17 17
11 10 10 8 4 0 2 4 1 5 5 1 0 3 2 4 5 6 5 6 2 1 1 5 5 2 0 10 1 12 5 1 2 2 2 3 3 3 3 7 15 16 16 18 18
10 8 8 7 3 1 4 2 4 4 3 3 2 3 2 4 3 5 4 6 4 6 5 5 1 3 5 6 3 9 6 3 4 4 5 4 2 4 3 3 7 14 16 17 17
10 8 7 5 3 3 3 4 3 2 5 2 1 0 1 3 3 5 2 3 2 2 2 3 6 5 4 4 4 5 3 2 3 4 5 4 3 4 6 4 4 9 10 14 16
9 6 3 4 4 5 3 2 6 5 1 3 2 3 3 1 2 2 2 1 2 3 2 3 5 1 4 1 2 5 4 1 2 3 3 3 2 3 4 9 9 10 14 14 16
7 1 2 5 4 2 3 5 3 1 3 3 4 2 3 3 3 3 1 2 1 1 4 3 4 2 3 3 2 3 4 1 0 3 4 5 4 4 10 16 14 13 14 14 15
8 2 3 4 4 3 3 5 3 1 1 2 4 3 4 2 2 1 1 2 2 2 3 4 3 2 3 2 3 3 3 2 2 1 1 4 4 3 4 9 10 9 11 11 13
6 1 3 6 2 0 2 4 3 2 1 2 3 2 5 3 2 1 3 3 4 4 3 4 3 3 7 4 4 3 4 2 2 3 2 1 5 3 4 6 8 11 12 10 11
3 2 1 2 3 3 3 2 2 4 4 4 4 2 1 4 2 2 2 0 4 4 5 3 0 4 7 3 2 1 4 2 3 1 3 0 6 4 2 7 9 10 10 10 11
3 2 2 2 1 3 4 1 2 0 2 2 3 4 3 1 2 2 3 2 4 2 4 4 2 6 5 7 2 6 2 1 3 2 2 5 11 8 7 10 10 10 10 9 10
1 2 1 2 3 2 1 2 3 3 3 4 2 5 6 3 1 4 3 1 2 1 2 3 2 2 6 2 3 5 5 1 4 4 4 3 4 10 6 7 9 9 11 10 10
4 3 1 0 1 5 4 6 6 2 7 4 5 3 5 5 6 7 5 4 3 1 3 1 2 2 4 3 2 4 5 4 3 3 6 1 5 3 1 3 5 6 7 7 7
3 2 2 4 3 3 4 4 6 5 5 2 6 5 3 7 4 2 3 4 4 6 3 1 2 2 4 3 0 5 6 4 3 3 4 1 5 1 4 2 3 3 4 4 6
Wind_Direction
7 2 1 360 360 356 352 348 350 343 343 348 9 49 109 113 88 56 52 359 351 349 347 345 359 357 108 84 104 131 41 276 273 260 301 4 11 307 291 271 334 304 36 249 335
3 360 359 358 356 357 350 350 350 345 3 11 22 86 117 130 58 60 32 359 357 346 348 345 342 349 29 27 32 101 138 234 248 340 327 320 328 309 337 330 301 300 294 298 319
358 357 357 355 354 355 351 351 353 7 16 18 27 99 125 175 47 359 3 354 353 332 335 4 6 56 49 13 10 15 215 244 285 308 356 291 308 258 280 290 242 290 295 304 306
355 353 353 352 352 354 350 351 359 12 9 11 35 99 79 146 17 355 347 341 340 340 8 20 2 40 26 359 291 338 256 247 263 298 312 280 264 260 220 256 248 306 301 297 305
353 351 348 350 353 351 347 351 1 10 6 9 29 103 128 52 359 338 347 341 340 6 50 60 54 64 160 266 333 214 290 316 299 295 266 278 263 258 250 313 28 26 25 22 11
350 348 345 349 353 348 347 350 355 4 8 22 51 59 92 80 0 347 353 360 16 45 47 59 174 195 245 262 144 258 281 288 280 292 276 306 289 346 353 318 33 24 4 357 360
344 345 343 347 350 347 343 345 341 359 27 48 34 48 61 168 43 3 1 32 26 74 68 82 45 84 245 327 289 276 316 316 296 285 339 325 307 95 354 23 12 0 351 344 354
343 342 343 342 347 345 341 337 322 342 95 55 12 61 192 281 311 359 360 26 59 68 55 57 27 137 44 293 352 342 31 340 325 309 304 2 291 45 354 7 9 358 349 345 349
340 340 342 339 343 342 341 337 19 107 104 37 81 75 271 324 350 350 343 334 28 73 33 23 34 70 20 354 7 29 319 318 320 334 4 12 293 22 10 12 1 358 349 346 340
339 339 341 339 340 343 347 23 90 89 50 315 53 58 36 322 323 326 4 39 67 23 32 39 40 51 9 31 338 308 318 291 300 297 333 307 318 349 10 17 2 355 352 347 345
335 336 339 341 341 351 355 111 22 355 46 105 131 285 354 339 330 344 357 16 31 56 23 354 43 340 298 252 228 260 290 284 294 307 312 306 327 346 358 15 0 1 358 351 346
330 335 337 341 339 357 18 73 102 262 327 218 274 291 330 355 325 338 4 65 45 33 349 10 340 274 278 276 291 299 300 284 296 305 332 32 295 309 9 18 8 3 354 351 345
326 332 335 340 332 347 59 63 130 133 97 264 213 210 255 72 262 309 21 103 67 35 47 160 259 299 321 326 338 318 217 289 286 327 179 144 274 278 346 342 5 3 353 353 352
321 328 337 343 340 349 45 12 142 110 66 246 236 124 110 127 58 22 4 84 56 22 354 232 273 303 332 315 13 316 196 316 291 92 250 153 283 140 348 345 0 355 353 348 345
314 322 332 352 324 350 350 76 153 83 16 194 259 100 32 100 301 29 31 32 110 294 77 244 310 338 9 325 1 251 312 290 235 155 60 194 107 236 1 343 345 347 347 345 344
301 313 326 330 313 216 49 128 83 44 258 328 280 341 75 14 3 337 29 31 74 359 208 267 290 132 277 319 222 326 335 217 84 75 12 233 134 288 350 333 328 338 339 340 341
286 296 307 307 290 217 139 76 32 138 359 279 286 34 116 345 35 37 38 13 39 24 2 329 284 31 48 323 340 16 351 353 357 360 231 262 127 249 171 356 324 326 328 337 342
264 273 288 259 223 175 139 52 111 229 225 77 21 19 94 16 43 8 78 30 65 95 43 44 334 25 355 125 243 357 90 51 296 316 296 316 251 286 173 134 330 328 318 340 343
235 265 251 207 178 189 81 75 215 204 156 164 45 57 320 21 129 45 62 152 213 132 151 58 284 62 66 351 152 333 39 255 255 215 295 268 236 135 237 353 353 342 346 346 345
172 178 232 184 168 174 87 239 210 226 110 67 165 139 225 283 41 43 342 157 191 221 142 224 340 138 124 357 6 93 331 114 223 341 300 305 292 257 337 334 340 344 349 344 344
135 94 199 172 154 60 196 222 210 149 95 127 196 187 223 215 158 174 241 185 174 189 172 154 113 307 69 351 209 350 359 355 277 222 247 308 289 168 260 299 311 327 345 344 342
131 163 166 159 57 51 216 188 161 153 103 228 136 122 182 152 147 213 227 219 153 140 209 187 154 285 227 250 244 121 219 197 116 308 281 260 278 154 232 293 332 339 348 355 351
126 130 82 232 190 239 292 265 110 153 214 198 193 123 75 164 57 196 246 198 146 157 180 212 175 11 358 32 280 173 233 190 189 338 247 214 278 165 220 360 348 346 353 351 356
119 157 322 41 262 172 176 205 311 308 240 189 135 100 98 49 4 233 234 194 198 203 171 121 144 148 196 223 156 315 242 269 148 123 244 235 293 310 347 349 339 351 352 349 354
102 192 189 192 251 167 82 100 177 245 228 185 214 203 177 147 359 234 228 216 191 262 106 130 213 175 259 234 159 265 260 232 195 202 181 249 267 297 330 335 336 342 356 357 1
141 148 11 354 56 144 162 213 207 179 161 236 208 198 175 176 191 203 162 183 189 132 179 35 256 92 305 344 164 290 253 227 192 253 266 270 285 254 320 12 351 342 336 343 353
127 77 104 155 160 157 217 206 184 163 206 214 182 129 201 235 184 138 107 106 144 152 161 103 115 52 278 304 54 340 236 200 254 218 175 33 227 314 320 307 250 291 330 352 0